Torna al catalogo

COSMOS 2507

AttivoNavigazionePO
NORAD 40920·PAYLOAD·🇷🇺 Russia

Lanciato Sep 23, 2015 da Plesetsk Cosmodrome

Loading…

Prossimi Passaggi (prossime 24 ore)

TLE

AggiornatoSource: Space-Track

Epoca: Sep 14, 2026, 13:56 UTC

1 40920U 15050A   26257.58103672 -.00000079  00000-0 -64075-3 0  9993
2 40920  82.4960  23.9964 0010455 151.2982 208.8675 12.42928662497965

Traccia COSMOS 2507 in tempo reale con AllMySat

Download on the App Store